sat.trackr.live / text

‹ back to catalog

STARLINK-32344

NORAD 61719 · 2024-196N

PAYLOAD ACTIVE UNKNOWN

§ Identity

Operator
Country
US
Launch date
2024-10-30
Launch site
AFETR
Launch vehicle
Mass (kg)
RCS (m²)

Purposes: comms

External: N2YO · Heavens-Above · Gunter

§ Orbital elements

Epoch: 2026-05-25T04:05:05.762976Z

Period
94.11 min
Inclination
53.1604°
Eccentricity
0.0001313
Mean motion
15.30196842 rev/d
Perigee alt
474.3 km
Apogee alt
476.1 km
Semi-major
6,853.4 km
B*
3.4365e-5
RAAN
106.2686°
Arg perigee
85.2045°
Mean anomaly
274.9106°
Rev number
8,886

§ Raw data

STARLINK-323441 61719U 24196N   26145.17020559  .00000659  00000+0  34365-4 0  99972 61719  53.1604 106.2686 0001313  85.2045 274.9106 15.30196842 88864

JSON: /api/v1/satellites/61719 · /tle

For live sub-satellite position, see the globe view (requires WebGL).

§ Visibility from observer

Set your observer location to see the next 7 days of passes ≥ 10°. The values pass through the URL so the page stays shareable.

No JS? Fill the form by hand. The geolocation button needs JavaScript.